[[{"header":{"parameterUnit":"m.s-1","parameterCategory":1,"la1":30.2991,"la2":30.254,"lo1":-89.0895,"lo2":-89.0444,"dy":0.0017,"dx":0.0017,"nx":28,"ny":28,"refTime":"2023-10-03T21:00:00:Z","depth":0,"parameterNumber":2,"parameterNumberName":"U-component_of_WINDS"},"data":[0,0,0,0,0,0,0,0,0,0,0,0,0,0,0,0,0,0,0,0,0,0,0,0,0,0,0,0,0,0,0,0,0,0,0,0,0,0,0,0,0,0,0,0,0,0,0,0,0,0,0,0,0,0,0,0,0,0,-5.2202,-5.2202,0,-5.2267,-5.2268,-5.2269,-5.2202,-5.2199,-5.2197,-5.2194,-5.2262,-5.2266,-5.227,0,0,0,0,0,0,0,0,0,0,0,0,0,-5.2022,-5.2026,-5.2202,-5.2202,-5.2203,-5.2267,-5.2268,-5.2269,-5.2202,-5.2199,-5.2196,-5.2193,-5.2261,-5.2266,-5.2271,0,0,0,0,0,0,0,0,0,0,0,0,0,-5.2095,-5.2027,-5.2201,-5.2178,-5.2176,-5.2267,-5.2268,-5.2269,-5.2203,-5.2199,-5.2195,-5.2192,-5.2259,-5.2265,-5.2271,-5.2388,0,0,-5.2291,-5.2293,0,0,0,0,0,0,0,0,-5.2091,-5.2102,-5.218,-5.218,-5.2178,-5.2222,-5.2229,-5.2309,-5.2204,-5.2193,-5.2194,-5.219,-5.2252,-5.2259,-5.2279,-5.2392,-5.2394,-5.2291,-5.2295,-5.2298,-5.23,0,0,0,0,0,0,0,-5.2086,-5.2099,-5.2227,-5.2182,-5.218,-5.2165,-5.2171,-5.2244,-5.2244,-5.2194,-5.2189,-5.2198,-5.2251,-5.2274,-5.2281,-5.2395,-5.2291,-5.2297,-5.2301,-5.2303,-5.261,-5.2614,0,0,0,0,0,0,-5.2083,-5.2095,-5.2225,-5.2229,-5.2124,-5.2171,-5.2178,-5.2212,-5.2243,-5.2243,-5.2201,-5.2194,-5.2265,-5.2273,-5.2283,-5.2422,-5.2298,-5.2304,-5.2307,-5.2606,-5.2611,-5.2616,0,0,0,0,0,0,-5.208,-5.2096,-5.2223,-5.2161,-5.2176,-5.2179,-5.2217,-5.2215,-5.2238,-5.2248,-5.2248,-5.2224,-5.2262,-5.2274,-5.2363,-5.2424,-5.2307,-5.2312,-5.26,-5.2607,-5.2613,-5.2703,0,0,0,0,0,0,-5.2075,-5.2095,-5.2138,-5.2162,-5.2179,-5.2301,-5.2221,-5.222,-5.2249,-5.2241,-5.227,-5.2271,-5.226,-5.2354,-5.237,-5.243,-5.2317,-5.2595,-5.2603,-5.2611,-5.2694,-5.2711,-5.2726,0,0,0,0,0,-5.2069,-5.216,-5.2141,-5.2157,-5.2234,-5.2305,-5.2315,-5.23,-5.2254,-5.2299,-5.2306,-5.227,-5.2416,-5.2364,-5.2381,-5.2444,-5.2591,-5.2601,-5.2611,-5.2687,-5.2708,-5.2726,0,0,0,0,0,0,-5.2142,-5.2163,-5.2141,-5.2243,-5.2273,-5.2293,-5.2348,-5.2322,-5.2365,-5.2356,-5.2336,-5.2343,-5.2438,-5.2451,-5.2393,-5.2561,-5.2496,-5.251,-5.2548,-5.2568,-5.2584,-5.2578,-5.2322,0,0,0,0,0,-5.217,-5.2226,-5.2241,-5.233,-5.2346,-5.2345,-5.2375,-5.2362,-5.2392,-5.2404,-5.2417,-5.2448,-5.2501,-5.2536,-5.2585,-5.2697,-5.2703,-5.275,-5.2766,-5.2779,-5.279,-5.2852,-5.2873,-5.2648,-5.2648,-5.2647,0,0,-5.2228,-5.2247,-5.2282,-5.2345,-5.2366,-5.2425,-5.2356,-5.242,-5.2464,-5.2414,-5.2498,-5.251,-5.2544,-5.2646,-5.2691,-5.2659,-5.2854,-5.2791,-5.2802,-5.2805,-5.2864,-5.2885,-5.2904,-5.2654,-5.2653,-5.2652,0,0,-5.2364,-5.2384,-5.246,-5.2484,-5.2517,-5.2517,-5.2536,-5.2562,-5.2568,-5.2653,-5.2617,-5.267,-5.2761,-5.2787,-5.2812,-5.2963,-5.2932,-5.298,-5.3062,-5.3123,-5.3141,-5.3156,-5.321,-5.3229,-5.2992,-5.2992,-5.2992,0,-5.2431,-5.2517,-5.2502,-5.257,-5.2599,-5.2559,-5.2637,-5.2661,-5.2709,-5.2731,-5.2695,-5.281,-5.283,-5.2938,-5.2975,-5.2997,-5.3018,-5.2975,-5.3139,-5.3155,-5.3169,-5.322,-5.3241,-5.2998,-5.2997,-5.2997,-5.2996,0,-5.2599,-5.266,-5.2718,-5.2767,-5.2803,-5.2876,-5.2873,-5.2912,-5.2897,-5.2901,-5.2991,-5.3014,-5.3067,-5.3093,-5.3078,-5.32,-5.3179,-5.3142,-5.3076,-5.3196,-5.3244,-5.3263,-5.3006,-5.3004,-5.3002,-5.3001,0,0,-5.2778,-5.282,-5.2842,-5.2864,-5.2901,-5.2948,-5.3021,-5.3074,-5.3108,-5.3145,-5.3205,-5.3286,-5.3253,-5.3281,-5.327,-5.3324,-5.3443,-5.328,-5.3281,-5.3309,-5.3579,-5.3605,-5.3628,-5.3425,-5.3428,-5.3431,-5.3576,0,-5.2914,-5.3038,-5.3029,-5.3147,-5.3204,-5.3169,-5.3232,-5.3263,-5.327,-5.3321,-5.3329,-5.3386,-5.3338,-5.3355,-5.3407,-5.3417,-5.3497,-5.3407,-5.348,-5.3483,-5.347,-5.3653,-5.368,-5.3815,-5.3595,-5.3598,-5.36,0,-5.3087,-5.313,-5.3254,-5.3285,-5.3309,-5.3366,-5.3415,-5.3464,-5.3499,-5.3501,-5.3536,-5.3517,-5.3592,-5.3528,-5.3631,-5.3571,-5.3601,-5.3612,-5.3617,-5.362,-5.3547,-5.3661,-5.3858,-5.3878,-5.3629,-5.3627,-5.3625,0,-5.3204,-5.3294,-5.338,-5.34,-5.3439,-5.348,-5.3498,-5.3529,-5.3563,-5.3608,-5.363,-5.3683,-5.3711,-5.3754,-5.375,-5.3704,-5.3856,-5.3791,-5.386,-5.386,-5.389,-5.3888,-5.4094,-5.3914,-5.3914,-5.3914,-5.3913,0,-5.3354,-5.3431,-5.3433,-5.3485,-5.3572,-5.3562,-5.3648,-5.3662,-5.3691,-5.3747,-5.3722,-5.3775,-5.3769,-5.3823,-5.3822,-5.3908,-5.3922,-5.3926,-5.3924,-5.3927,-5.3926,-5.3944,-5.3934,-5.3919,-5.3918,-5.3917,-5.3916,0,-5.3497,-5.3501,-5.3593,-5.3623,-5.3633,-5.3695,-5.3722,-5.3772,-5.378,-5.3851,-5.3867,-5.3879,-5.3942,-5.3944,-5.4016,-5.4016,-5.4121,-5.411,-5.4109,-5.4106,-5.4174,-5.4167,-5.4397,-5.4427,-5.423,-5.4232,-5.4233,0,-5.3591,-5.365,-5.3688,-5.3724,-5.3744,-5.3802,-5.3837,-5.3833,-5.387,-5.3917,-5.3963,-5.4024,-5.4072,-5.4175,-5.419,-5.4246,-5.4235,-5.4312,-5.4243,-5.4245,-5.4235,-5.423,-5.4237,-5.4324,-5.4326,-5.4328,-5.433,0,-5.3758,-5.3759,-5.381,-5.3863,-5.3906,-5.3948,-5.3987,-5.4018,-5.4018,-5.4062,-5.4126,-5.4164,-5.424,-5.4301,-5.4356,-5.4376,-5.4354,-5.4352,-5.4371,-5.4373,-5.4369,-5.4371,-5.4143,-5.4346,-5.4344,-5.4343,-5.4342,-5.4342,-5.3879,-5.393,-5.3965,-5.4024,-5.4054,-5.4091,-5.4141,-5.4156,-5.421,-5.427,-5.4265,-5.4337,-5.4375,-5.4447,-5.4472,-5.4529,-5.4503,-5.453,-5.4537,-5.4543,-5.455,-5.4363,-5.454,-5.4539,-5.4539,-5.4539,-5.4538,0,-5.4043,-5.4065,-5.412,-5.4176,-5.4223,-5.42,-5.4243,-5.4284,-5.4347,-5.4385,-5.4433,-5.4509,-5.457,-5.4592,-5.4651,-5.4693,-5.4684,-5.4708,-5.4704,-5.4709,-5.457,-5.4548,-5.4715,-5.4715,-5.4715,-5.4714,-5.4714,-5.4714,-5.4134,-5.422,-5.4225,-5.4326,-5.4348,-5.4418,-5.4445,-5.4481,-5.4511,-5.4596,-5.4647,-5.4661,-5.4693,-5.4755,-5.4811,-5.4816,-5.4838,-5.4867,-5.4867,-5.4737,-5.4719,-5.4702,-5.468,-5.4872,-5.4872,-5.5001,-5.5002,-5.5003]},{"header":{"parameterUnit":"m.s-1","parameterCategory":1,"la1":30.2991,"la2":30.254,"lo1":-89.0895,"lo2":-89.0444,"dy":0.0017,"dx":0.0017,"nx":28,"ny":28,"refTime":"2023-10-03T21:00:00:Z","depth":0,"parameterNumber":3,"parameterNumberName":"V-component_of_WINDS"},"data":[0,0,0,0,0,0,0,0,0,0,0,0,0,0,0,0,0,0,0,0,0,0,0,0,0,0,0,0,0,0,0,0,0,0,0,0,0,0,0,0,0,0,0,0,0,0,0,0,0,0,0,0,0,0,0,0,0,0,1.8954,1.8953,0,1.8916,1.8915,1.8915,1.8948,1.8949,1.8951,1.8952,1.8906,1.8903,1.8901,0,0,0,0,0,0,0,0,0,0,0,0,0,1.9051,1.9049,1.8954,1.8953,1.8953,1.8916,1.8915,1.8914,1.8948,1.8949,1.8951,1.8953,1.8907,1.8904,1.8901,0,0,0,0,0,0,0,0,0,0,0,0,0,1.901,1.9048,1.8954,1.8965,1.8966,1.8916,1.8915,1.8914,1.8947,1.8949,1.8952,1.8954,1.8908,1.8904,1.89,1.8835,0,0,1.8888,1.8887,0,0,0,0,0,0,0,0,1.9012,1.9006,1.8964,1.8964,1.8965,1.8939,1.8932,1.8887,1.8947,1.8954,1.8952,1.8955,1.8915,1.891,1.8898,1.8833,1.8831,1.8888,1.8886,1.8884,1.8883,0,0,0,0,0,0,0,1.9015,1.9008,1.8938,1.8963,1.8964,1.897,1.8967,1.8924,1.8923,1.8954,1.8956,1.8951,1.8915,1.8902,1.8897,1.883,1.8888,1.8885,1.8883,1.8881,1.8709,1.8707,0,0,0,0,0,0,1.9017,1.901,1.894,1.8937,1.8994,1.8967,1.8963,1.8945,1.8923,1.8922,1.895,1.8953,1.8907,1.8902,1.8896,1.8818,1.8884,1.8881,1.8878,1.8712,1.8709,1.8707,0,0,0,0,0,0,1.9019,1.9011,1.8941,1.8975,1.8966,1.8963,1.8942,1.8943,1.893,1.8921,1.892,1.8937,1.8909,1.8901,1.885,1.8817,1.8879,1.8875,1.8714,1.8711,1.8708,1.8662,0,0,0,0,0,0,1.9022,1.9011,1.8987,1.8974,1.8964,1.8898,1.894,1.8941,1.8924,1.8928,1.8908,1.8907,1.891,1.8856,1.8847,1.8813,1.8873,1.8717,1.8713,1.8709,1.8666,1.8657,1.865,0,0,0,0,0,1.9025,1.8974,1.8986,1.8977,1.8935,1.8896,1.889,1.8897,1.8921,1.8896,1.8891,1.8907,1.8823,1.885,1.884,1.8805,1.8719,1.8714,1.8709,1.867,1.8659,1.865,0,0,0,0,0,0,1.8981,1.8973,1.8985,1.8929,1.8913,1.8901,1.887,1.8885,1.886,1.8864,1.8872,1.8867,1.8813,1.8804,1.8835,1.8741,1.8775,1.8767,1.8749,1.8738,1.873,1.8732,1.8869,0,0,0,0,0,1.8965,1.8936,1.893,1.888,1.8872,1.8873,1.8856,1.8863,1.8846,1.8838,1.8829,1.881,1.8779,1.8758,1.873,1.8666,1.8662,1.8637,1.8629,1.8622,1.8614,1.858,1.8569,1.869,1.869,1.869,0,0,1.8931,1.8923,1.8903,1.8871,1.886,1.8828,1.8866,1.8831,1.8807,1.8832,1.8784,1.8777,1.8756,1.8699,1.8673,1.8689,1.8581,1.8615,1.861,1.8606,1.8574,1.8563,1.8552,1.8686,1.8687,1.8687,0,0,1.8852,1.8843,1.8802,1.879,1.8774,1.8775,1.8765,1.8752,1.8749,1.8702,1.8721,1.8692,1.8638,1.8623,1.8608,1.8527,1.8541,1.8518,1.8473,1.844,1.843,1.8422,1.8392,1.8381,1.8511,1.8511,1.8511,0,1.881,1.8765,1.8778,1.8741,1.8726,1.8752,1.8709,1.8697,1.867,1.8658,1.8678,1.8614,1.8601,1.8541,1.8522,1.8509,1.8497,1.8519,1.8431,1.8423,1.8415,1.8387,1.8375,1.8508,1.8508,1.8509,1.8509,0,1.8715,1.8683,1.8651,1.8629,1.861,1.8571,1.8576,1.8556,1.8565,1.8564,1.8515,1.8503,1.8472,1.8459,1.8466,1.84,1.841,1.8431,1.8464,1.84,1.8374,1.8363,1.8504,1.8505,1.8506,1.8506,0,0,1.8604,1.8591,1.8579,1.857,1.8555,1.8529,1.8491,1.8464,1.8446,1.8428,1.8395,1.8352,1.8371,1.8354,1.8361,1.8332,1.8268,1.8355,1.8355,1.8339,1.8193,1.8177,1.8164,1.8278,1.8276,1.8275,1.8194,0,1.8524,1.846,1.8471,1.8408,1.8378,1.8403,1.837,1.8356,1.8355,1.8329,1.8326,1.8295,1.8323,1.8314,1.8286,1.8281,1.8238,1.8288,1.8246,1.8244,1.8248,1.815,1.8133,1.8057,1.8184,1.8183,1.8181,0,1.8421,1.8402,1.8337,1.8329,1.8317,1.8286,1.8263,1.8239,1.8224,1.8225,1.8208,1.822,1.8181,1.8218,1.8163,1.8196,1.818,1.8175,1.8172,1.8167,1.8207,1.8141,1.8034,1.8022,1.8165,1.8166,1.8168,0,1.8345,1.8304,1.826,1.8251,1.824,1.8218,1.8212,1.82,1.8183,1.8163,1.8152,1.8126,1.8111,1.809,1.8095,1.8122,1.8039,1.8076,1.8037,1.8037,1.8016,1.8017,1.7903,1.8009,1.8009,1.8009,1.8009,0,1.8254,1.8213,1.8226,1.8198,1.8153,1.8166,1.812,1.8117,1.8107,1.8078,1.8098,1.807,1.8079,1.8051,1.8055,1.8008,1.8002,1.8,1.8001,1.7997,1.7997,1.7985,1.799,1.8006,1.8007,1.8007,1.8008,0,1.816,1.8168,1.8122,1.8116,1.8114,1.8081,1.8075,1.8049,1.8051,1.8014,1.8006,1.8008,1.7976,1.798,1.7944,1.7947,1.7889,1.7897,1.7894,1.7896,1.7856,1.7859,1.7729,1.7712,1.783,1.7829,1.7828,0,1.8101,1.807,1.8063,1.8046,1.804,1.8013,1.7997,1.8009,1.7992,1.7974,1.795,1.7921,1.7899,1.7847,1.7844,1.7817,1.7823,1.778,1.7819,1.7816,1.7821,1.7822,1.7819,1.7771,1.777,1.7769,1.7768,0,1.7994,1.8,1.7977,1.7957,1.7938,1.7922,1.7907,1.7892,1.7904,1.7883,1.7853,1.7836,1.7801,1.7772,1.7747,1.7739,1.7754,1.7756,1.7745,1.774,1.774,1.7738,1.7872,1.7758,1.7759,1.776,1.776,1.7761,1.7914,1.7889,1.788,1.7855,1.7846,1.7833,1.7808,1.7808,1.7784,1.7759,1.7768,1.7733,1.772,1.7689,1.7678,1.7651,1.7666,1.7651,1.7647,1.7642,1.7637,1.7746,1.7646,1.7646,1.7647,1.7647,1.7647,0,1.7807,1.7804,1.7781,1.7762,1.7742,1.7762,1.7748,1.7729,1.77,1.7687,1.7666,1.7632,1.7604,1.76,1.7573,1.7552,1.7558,1.7544,1.7545,1.7543,1.7625,1.7637,1.754,1.754,1.754,1.754,1.754,1.754,1.7749,1.7707,1.7712,1.7666,1.7662,1.7631,1.7621,1.7608,1.7599,1.7561,1.7539,1.7538,1.7528,1.7502,1.7477,1.7477,1.7465,1.7448,1.745,1.7526,1.7537,1.7547,1.7558,1.7446,1.7446,1.737,1.7369,1.7368]}]]